Zurück zum Katalog

FLOCK 4G 20

AktivWissenschaftPO
NORAD 62636·PAYLOAD·🇺🇸 United States

Gestartet Jan 14, 2025 von Vandenberg Space Force Base

Loading…

Nächste Überflüge (nächste 24 Stunden)

TLE

AktuellSource: Space-Track

Epoche: Sep 14, 2026, 05:14 UTC

1 62636U 25009AD  26257.21837609  .00159614  00000-0  10543-2 0  9998
2 62636  97.3777 345.7357 0001821 304.1748  55.9344 15.75119110 93034

Verfolge FLOCK 4G 20 in Echtzeit mit AllMySat

Download on the App Store